De Ridder, LA

12:59 AM CDT on April 29, 2017 (GMT -0500)
Beauregard Parish

Weather History for KDRI - February, 2013

Change the Weather History Date:

Wednesday, February 27, 2013

  Actual Average (KPOE) Record (KPOE)
Temperature  
Mean Temperature 53 °F -  
Max Temperature 69 °F 62 °F 82 °F (2006)
Min Temperature 37 °F 43 °F 24 °F (2002)
Degree Days  
Heating Degree Days 12    
Growing Degree Days 3 (Base 50)    
Moisture  
Dew Point 35 °F    
Average Humidity 60    
Maximum Humidity 93    
Minimum Humidity 30    
Precipitation  
Precipitation 0.00 in - - ()
Sea Level Pressure  
Sea Level Pressure 30.01 in    
Wind  
Wind Speed 4 mph (WNW)    
Max Wind Speed 22 mph    
Max Gust Speed 30 mph    
Visibility 10 miles    
Events      
Averages and records for this station are not official NWS values.
T = Trace of Precipitation, MM = Missing Value Source: NWS Daily Summary

Daily Weather History Graph

Daily Weather History Graph

Search for Another Location

Airport or City:

Trip Planner

Search our weather history database for the weather conditions in past years. The results will help you decide how hot, cold, wet, or windy it might be!

Date:

Astronomy

Feb. 27, 2013 Rise Set
Actual Time 6:41 AM CST 6:10 PM CST
Civil Twilight 6:17 AM CST 6:34 PM CST
Nautical Twilight 5:49 AM CST 7:02 PM CST
Astronomical Twilight 5:21 AM CST 7:30 PM CST
Moon 8:18 PM CST (2/27) 7:28 AM CST (2/27)
Length of Visible Light 12h 17m
Length of Day
11h 28m
Waning Gibbous, 96% of the Moon is Illuminated
Feb 27
Waning Gibbous
Mar 4
Last Quarter
Mar 11
New
Mar 19
First Quarter
Mar 27
Full

Hourly Weather History & Observations

Time (CST) Temp. Windchill Dew Point Humidity Pressure Visibility Wind Dir Wind Speed Gust Speed Precip Events Conditions
12:15 AM 42.8 °F - 37.4 °F 81% 29.96 in 10.0 mi Calm Calm - N/A   Clear
12:35 AM 42.8 °F - 37.4 °F 81% 29.96 in 10.0 mi Calm Calm - N/A   Mostly Cloudy
12:55 AM 42.8 °F - 37.4 °F 81% 29.96 in 10.0 mi Calm Calm - N/A   Overcast
2:15 AM 41.0 °F - 37.4 °F 87% 29.96 in 10.0 mi Calm Calm - N/A   Clear
2:35 AM 41.0 °F - 37.4 °F 87% 29.96 in 10.0 mi Calm Calm - N/A   Clear
2:55 AM 41.0 °F - 37.4 °F 87% 29.95 in 10.0 mi Calm Calm - N/A   Clear
3:15 AM 41.0 °F - 35.6 °F 81% 29.95 in 10.0 mi Calm Calm - N/A   Clear
3:35 AM 39.2 °F - 35.6 °F 87% 29.95 in 10.0 mi Calm Calm - N/A   Clear
3:55 AM 41.0 °F - 35.6 °F 81% 29.95 in 10.0 mi Calm Calm - N/A   Clear
4:15 AM 37.4 °F - 35.6 °F 93% 29.94 in 10.0 mi Calm Calm - N/A   Clear
4:35 AM 37.4 °F - 35.6 °F 93% 29.94 in 10.0 mi Calm Calm - N/A   Clear
4:55 AM 37.4 °F - 35.6 °F 93% 29.94 in 10.0 mi Calm Calm - N/A   Clear
5:15 AM 37.4 °F - 35.6 °F 93% 29.94 in 10.0 mi Calm Calm - N/A   Clear
5:35 AM 37.4 °F - 35.6 °F 93% 29.95 in 10.0 mi Calm Calm - N/A   Clear
6:15 AM 37.4 °F - 33.8 °F 87% 29.96 in 10.0 mi Calm Calm - N/A   Clear
6:35 AM 37.4 °F - 33.8 °F 87% 29.97 in 10.0 mi Calm Calm - N/A   Clear
6:55 AM 37.4 °F - 33.8 °F 87% 29.98 in 10.0 mi Calm Calm - N/A   Clear
7:15 AM 37.4 °F - 33.8 °F 87% 29.99 in 10.0 mi Calm Calm - N/A   Clear
7:35 AM 39.2 °F - 35.6 °F 87% 30.01 in 10.0 mi Calm Calm - N/A   Clear
10:15 AM 59.0 °F - 33.8 °F 39% 30.04 in 10.0 mi South 6.9 mph - N/A   Clear
10:35 AM 60.8 °F - 33.8 °F 36% 30.03 in 10.0 mi South 10.4 mph - N/A   Clear
10:55 AM 60.8 °F - 33.8 °F 36% 30.03 in 10.0 mi SSW 9.2 mph - N/A   Clear
11:15 AM 62.6 °F - 32.0 °F 32% 30.03 in 10.0 mi SW 10.4 mph - N/A   Clear
11:35 AM 64.4 °F - 33.8 °F 32% 30.01 in 10.0 mi SSW 12.7 mph 18.4 mph N/A   Clear
11:55 AM 64.4 °F - 33.8 °F 32% 30.01 in 10.0 mi South 9.2 mph - N/A   Clear
12:55 PM 68.0 °F - 35.6 °F 30% 29.99 in 10.0 mi West 13.8 mph 19.6 mph N/A   Overcast
1:15 PM 68.0 °F - 37.4 °F 33% 29.98 in 10.0 mi West 16.1 mph 24.2 mph N/A   Overcast
1:35 PM 69.8 °F - 41.0 °F 35% 29.96 in 10.0 mi WSW 11.5 mph 27.6 mph N/A   Overcast
2:35 PM 68.0 °F - 37.4 °F 33% 29.97 in 10.0 mi NNW 21.9 mph 29.9 mph N/A   Overcast
2:55 PM 64.4 °F - 39.2 °F 40% 29.98 in 10.0 mi NW 20.7 mph 25.3 mph N/A   Overcast
3:15 PM 64.4 °F - 39.2 °F 40% 29.98 in 10.0 mi NNW 12.7 mph 18.4 mph N/A   Overcast
3:55 PM 64.4 °F - 37.4 °F 37% 29.99 in 10.0 mi NNW 17.3 mph 23.0 mph N/A   Overcast
4:15 PM 64.4 °F - 37.4 °F 37% 30.00 in 10.0 mi NW 18.4 mph 24.2 mph N/A   Overcast
4:55 PM 62.6 °F - 33.8 °F 34% 30.01 in 10.0 mi NNW 12.7 mph 24.2 mph N/A   Mostly Cloudy
5:15 PM 60.8 °F - 33.8 °F 36% 30.02 in 10.0 mi NNW 13.8 mph 21.9 mph N/A   Mostly Cloudy
5:55 PM 59.0 °F - 32.0 °F 36% 30.04 in 10.0 mi NNW 10.4 mph 18.4 mph N/A   Scattered Clouds
6:15 PM 55.4 °F - 32.0 °F 41% 30.04 in 10.0 mi NNW 4.6 mph - N/A   Scattered Clouds
6:35 PM 53.6 °F - 33.8 °F 47% 30.05 in 10.0 mi NNW 3.5 mph - N/A   Scattered Clouds
6:55 PM 53.6 °F - 33.8 °F 47% 30.05 in 10.0 mi Calm Calm - N/A   Mostly Cloudy
7:15 PM 51.8 °F - 33.8 °F 50% 30.06 in 10.0 mi Calm Calm - N/A   Scattered Clouds
7:35 PM 51.8 °F - 33.8 °F 50% 30.07 in 10.0 mi NW 4.6 mph - N/A   Scattered Clouds
8:35 PM 50.0 °F - 33.8 °F 54% 30.09 in 10.0 mi NW 6.9 mph - N/A   Clear
8:55 PM 50.0 °F - 33.8 °F 54% 30.10 in 10.0 mi NW 5.8 mph - N/A   Clear
10:15 PM 46.4 °F 42.9 °F 30.2 °F 53% 30.13 in 10.0 mi NW 6.9 mph - N/A   Clear
10:35 PM 46.4 °F 42.9 °F 30.2 °F 53% 30.13 in 10.0 mi NW 6.9 mph - N/A   Clear
10:55 PM 44.6 °F 40.7 °F 30.2 °F 57% 30.13 in 10.0 mi NNW 6.9 mph - N/A   Clear
11:35 PM 44.6 °F 43.1 °F 28.4 °F 53% 30.14 in 10.0 mi NW 3.5 mph - N/A   Clear
11:55 PM 44.6 °F - 30.2 °F 57% 30.13 in 10.0 mi Calm Calm - N/A   Clear